Regional Weather Roundup
Issued by NWS

Home | Current Version | Previous Version | Graphics & Text | Print | Product List | Glossary On
Versions: 1 2 3 4 5 6 7 8 9 10 11 12 13 14 15 16 17 18 19 20 21 22 23 24 25 26 27 28 29 30 31 32 33 34 35 36 37 38 39 40 41 42 43 44 45 46 47 48 49 50
000
ASUS43 KLSX 060307
RWRMO

WEATHER SUMMARY FOR MISSOURI
NATIONAL WEATHER SERVICE SPRINGFIELD MO
900 PM CST MON DEC 05 2016

NOTE: "FAIR" INDICATES FEW OR NO CLOUDS BELOW 12,000 FEET WITH NO
       SIGNIFICANT WEATHER AND/OR OBSTRUCTIONS TO VISIBILITY.
       CURRENT SKY AND/OR WEATHER CONDITIONS ARE NOT AVAILABLE FOR
       CHILLICOTHE AND FARMINGTON.

MOZ001>031-035>038-043-044-053-054-060400-
...NORTHERN AND WESTERN MISSOURI...

CITY           SKY/WX    TMP DP  RH WIND       PRES   REMARKS
KANSAS CTY INT CLEAR     37  29  72 CALM      29.75R
KANSAS C DTWN  CLEAR     41  32  70 CALM      29.75R
LEE`S SUMMIT   CLEAR     38  32  79 SE3       29.74S
ST JOSEPH      CLEAR     35  31  85 CALM      29.76R
CHILLICOTHE      N/A     37  34  89 SE3       29.79R
KIRKSVILLE     FOG       36  36 100 SE8       29.81S VSB 1/2 WCI  30

$$
MOZ066>068-077>081-088>096-101>105-060400-
...SOUTHWEST MISSOURI...

CITY           SKY/WX    TMP DP  RH WIND       PRES   REMARKS
SPRINGFIELD    PTCLDY    38  34  85 SE6       29.73F
JOPLIN         CLOUDY    38  36  92 E3        29.74F
BRANSON        CLOUDY    39  37  93 SE8       29.75F

$$
MOZ032>034-039>042-045>050-055>058-069>072-060400-
...CENTRAL MISSOURI...

CITY           SKY/WX    TMP DP  RH WIND       PRES   REMARKS
COLUMBIA       CLEAR     36  34  92 E7        29.79F
JEFFERSON CITY CLEAR     37  34  89 E8        29.80F
ROLLA          CLEAR     35  31  85 E3        29.77S
SEDALIA        CLOUDY    35  32  88 SE9       29.76F WCI  28
WHITEMAN AFB   PTCLDY    35  35 100 SE9       29.74F WCI  28
WARRENSBURG    CLEAR     36  32  87 E3        29.75S
OSAGE BEACH    PTCLDY    37  32  82 E5        29.78F

$$
MOZ051-052-059>065-060400-
...EAST CENTRAL MISSOURI...

CITY           SKY/WX    TMP DP  RH WIND       PRES   REMARKS
ST LOUIS INTL  MOCLDY    40  33  76 SE12      29.86R
SPIRIT OF STL  MOCLDY    34  33  96 E8        29.84S WCI  27
ST CHARLES     CLOUDY    38  36  92 SE10      29.86S

$$
MOZ072>076-082>087-097>100-106>115-060400-
...SOUTH CENTRAL AND SOUTHEAST MISSOURI...

CITY           SKY/WX    TMP DP  RH WIND       PRES   REMARKS
CAPE GIRARDEAU CLOUDY    41  36  82 E7        29.84R
FARMINGTON     CLOUDY    39  35  86 SE5       29.82F
POPLAR BLUFF   CLOUDY    42  38  85 NE7       29.81F
WEST PLAINS    CLOUDY    39  37  92 E7        29.77F FOG

$$


USA.gov is the U.S. government's official web portal to all federal, state and local government web resources and services.